Weather History for Jackson Hawkins Field, MS

Change the Weather History Date:

Wednesday, May 8, 2013

  Actual Average (KJAN) Record (KJAN)
Temperature  
Mean Temperature 68 °F 70 °F  
Max Temperature 82 °F 81 °F 93 °F (1927)
Min Temperature 55 °F 59 °F 41 °F (1992)
Degree Days  
Heating Degree Days 0 1  
Month to date heating degree days 8  
Since 1 July heating degree days 2387  
Cooling Degree Days 3 6  
Month to date cooling degree days 41  
Year to date cooling degree days 159  
Growing Degree Days 18 (Base 50)    
Moisture  
Dew Point 56 °F    
Average Humidity 67    
Maximum Humidity 93    
Minimum Humidity 38    
Precipitation  
Precipitation 0.00 in 0.15 in 2.02 in (1961)
Month to date precipitation 1.15  
Year to date precipitation 20.88  
Sea Level Pressure  
Sea Level Pressure 30.05 in    
Wind  
Wind Speed 1 mph (South)    
Max Wind Speed 6 mph    
Max Gust Speed -    
Visibility 9 miles    
Events      
T = Trace of Precipitation, MM = Missing Value Source: NWS Daily Summary

Daily Weather History Graph

Daily Weather History Graph

Search for Another Location

Airport:

Trip Planner

Search our weather history database for the weather conditions in past years. The results will help you decide how hot, cold, wet, or windy it might be!

Date:

Astronomy

May. 08, 2013 Rise Set
Actual Time 6:07 AM CDT 7:47 PM CDT
Civil Twilight 5:41 AM CDT 8:13 PM CDT
Nautical Twilight 5:09 AM CDT 8:45 PM CDT
Astronomical Twilight 4:35 AM CDT 9:19 PM CDT
Moon 5:11 AM CDT (5/8) 6:48 PM CDT (5/8)
Length of Visible Light 14h 32m
Length of Day
13h 39m
Waning Crescent, 2% of the Moon is Illuminated
May 8
Waning Crescent
May 9
New
May 17
First Quarter
May 24
Full
May 31
Last Quarter

Hourly Weather History & Observations

Time (CDT) Temp. Heat Index Dew Point Humidity Pressure Visibility Wind Dir Wind Speed Gust Speed Precip Events Conditions
12:53 AM 57.9 °F - 55.9 °F 93% 30.03 in 6.0 mi Calm Calm - N/A   Clear
1:53 AM 57.0 °F - 55.0 °F 93% 30.02 in 6.0 mi Calm Calm - N/A   Clear
2:53 AM 57.0 °F - 55.0 °F 93% 30.02 in 8.0 mi Calm Calm - N/A   Clear
3:53 AM 55.9 °F - 54.0 °F 93% 30.02 in 5.0 mi Calm Calm - N/A   Clear
4:53 AM 55.9 °F - 54.0 °F 93% 30.01 in 9.0 mi Calm Calm - N/A   Clear
5:53 AM 55.9 °F - 54.0 °F 93% 30.03 in 8.0 mi Calm Calm - N/A   Clear
6:53 AM 55.9 °F - 54.0 °F 93% 30.05 in 5.0 mi Calm Calm - N/A   Clear
7:53 AM 62.1 °F - 57.9 °F 86% 30.06 in 9.0 mi SSE 3.5 mph - N/A   Clear
8:53 AM 68.0 °F - 57.9 °F 70% 30.08 in 10.0 mi South 4.6 mph - N/A   Clear
9:53 AM 73.0 °F - 57.9 °F 59% 30.10 in 10.0 mi SW 5.8 mph - N/A   Clear
10:53 AM 75.0 °F - 55.9 °F 51% 30.11 in 10.0 mi Variable 3.5 mph - N/A   Clear
11:53 AM 78.1 °F - 55.9 °F 46% 30.09 in 10.0 mi NNE 3.5 mph - N/A   Clear
12:53 PM 79.0 °F - 57.0 °F 47% 30.08 in 10.0 mi NW 5.8 mph - N/A   Mostly Cloudy
1:53 PM 80.1 °F 80.2 °F 55.9 °F 43% 30.07 in 10.0 mi SE 5.8 mph - N/A   Partly Cloudy
2:53 PM 81.0 °F 80.8 °F 55.9 °F 42% 30.06 in 10.0 mi South 3.5 mph - N/A   Scattered Clouds
3:53 PM 81.0 °F 80.8 °F 55.9 °F 42% 30.04 in 10.0 mi Variable 3.5 mph - N/A   Scattered Clouds
4:53 PM 81.0 °F 80.8 °F 55.9 °F 42% 30.03 in 10.0 mi East 3.5 mph - N/A   Mostly Cloudy
5:53 PM 81.0 °F 80.4 °F 53.1 °F 38% 30.02 in 10.0 mi Calm Calm - N/A   Partly Cloudy
6:53 PM 80.1 °F 80.0 °F 54.0 °F 40% 30.02 in 10.0 mi West 4.6 mph - N/A   Clear
7:53 PM 73.9 °F - 57.0 °F 55% 30.03 in 10.0 mi North - - N/A   Clear
8:53 PM 70.0 °F - 57.9 °F 65% 30.03 in 10.0 mi Calm Calm - N/A   Clear
9:53 PM 68.0 °F - 59.0 °F 73% 30.04 in 10.0 mi Calm Calm - N/A   Clear
10:53 PM 64.0 °F - 59.0 °F 84% 30.04 in 10.0 mi Calm Calm - N/A   Clear
11:53 PM 64.0 °F - 59.0 °F 84% 30.03 in 10.0 mi Calm Calm - N/A   Clear